Regional Weather Roundup
Issued by NWS Kansas City/Pleasant Hill, MO

Home | Current Version | Previous Version | Graphics & Text | Print | Product List | Glossary Off
Versions: 1 2 3 4 5 6 7 8 9 10 11 12 13 14 15 16 17 18 19 20 21 22 23 24 25 26 27 28 29 30 31 32 33 34 35 36 37 38 39 40 41 42 43 44 45 46 47 48 49 50

000
ASUS43 KEAX 200411
RWREAX

WEATHER ROUNDUP FOR EASTERN KANSAS AND NORTHWEST MISSOURI
NATIONAL WEATHER SERVICE KANSAS CITY/PLEASANT HILL MO
1100 PM CDT TUE AUG 19 2014

KSZ040-057-103>105-MOZ028-029-037-043-200500-
...KANSAS CITY METROPOLITAN AREA...

CITY           SKY/WX    TMP DP  RH WIND       PRES   REMARKS
K.C. INTL      CLEAR     79  73  82 SE7       29.81S
K.C. DOWNTOWN  CLEAR     86  73  65 CALM      29.80R HX  93
LEES SUMMIT    CLEAR     82  73  74 S9        29.83R
OLATHE - IXD   CLEAR     77  69  76 S8        29.83S
OLATHE - OJC   CLEAR     79  69  71 S5        29.82S
LAWRENCE       CLEAR     78  70  76 SE3       29.81R

$$

MOZ001>008-011>017-020>025-030>033-038>040-044>046-053-054-200500-
...NORTHERN AND CENTRAL MISSOURI...

CITY           SKY/WX    TMP DP  RH WIND       PRES   REMARKS
ST. JOSEPH     CLEAR     77  72  84 CALM      29.80S
MOSBY          CLEAR     75  75 100 CALM      29.81R
WHITEMAN AFB   CLEAR     75  67  74 S5        29.83R
CLINTON        CLEAR     77  73  88 S5        29.85R
SEDALIA        CLEAR     74  71  91 SE3       29.85R
WARSAW         NOT AVBL
MARSHALL       CLEAR     79  77  94 E5        29.84S
CHILLICOTHE      N/A     75  73  93 CALM      29.83R
MOBERLY        CLEAR     73  70  88 S3        29.85R
KIRKSVILLE     PTCLDY    71  70  96 CALM      29.85S

$$

MOZ041-047>049-056>058-063>065-088>090-097-200500-
...EASTERN AND SOUTHERN MISSOURI...

CITY           SKY/WX    TMP DP  RH WIND       PRES   REMARKS
ST. LOUIS INTL PTCLDY    79  71  76 CALM      29.84R
SPIRIT OF STL  CLEAR     73  71  93 CALM      29.82S
COLUMBIA       CLEAR     74  71  91 S5        29.85R
JEFFERSON CITY CLEAR     73  70  90 CALM      29.83S
MEXICO         CLEAR    N/A N/A N/A CALM      29.85S
HANNIBAL       CLEAR     75  72  88 S3        29.84S
ROLLA          CLEAR     73  68  84 CALM      29.86R
LEBANON        CLEAR     81  66  61 SW5       29.90S
OSAGE BEACH    CLEAR     77  70  78 CALM      29.86R
SPRINGFIELD    CLEAR     77  67  71 SW6       29.90R
BRANSON        CLEAR     79  70  73 S5        29.92S
JOPLIN         CLEAR     81  70  69 S9        29.88R
WEST PLAINS    PTCLDY    80  70  71 SW3       29.91S

$$

IAZ060-094-KSZ022-034>040-054-083-096-NEZ052-066-093-200500-
...KANSAS...SOUTHEAST NEBRASKA AND IOWA...

CITY           SKY/WX    TMP DP  RH WIND       PRES   REMARKS
TOPEKA         CLEAR     81  72  74 S3        29.80R
MANHATTAN      CLEAR     81  68  64 SW8       29.79R
EMPORIA        CLEAR     76  66  71 S8        29.83R
CHANUTE        CLEAR     80  71  74 S9        29.85R HAZE
WICHITA        CLEAR     82  67  60 S13       29.83R
OMAHA          MOCLDY    77  64  64 SE6       29.80S
LINCOLN        PTCLDY    79  70  74 SE7       29.79F
FALLS CITY     PTCLDY    76  73  91 E3        29.79R
LAMONI         CLEAR     75  68  78 SE5       29.83S
DES MOINES     CLEAR     75  66  73 SE3       29.82R

$$



USA.gov is the U.S. government's official web portal to all federal, state and local government web resources and services.